SCP
1 1 1 1 1 0 0 0 1 1 1 1 1 1 1 1 1 1 1 1 1 0 1 1 1 1 1 1 1 1 1 1 1 0 1 1 1 1 1 1 1 0 0
1 1 1 1 0 0 0 0 1 1 1 1 1 1 1 1 1 1 1 1 1 0 1 1 1 1 1 1 1 1 1 1 1 1 1 0 0 0 0 1 1 0 0
0 0 0 1 0 0 0 0 1 1 1 1 1 1 1 1 1 0 1 1 0 0 0 1 1 1 1 1 1 1 1 1 1 1 0 0 0 0 0 0 1 0 0
0 0 0 1 1 0 0 0 0 1 1 1 1 1 1 1 1 0 0 0 0 0 0 1 1 1 1 1 1 1 1 1 1 0 0 0 0 0 0 0 0 0 0
0 0 0 1 1 0 0 0 0 0 1 0 0 0 0 0 0 0 0 0 0 0 0 1 1 1 1 1 1 1 1 0 0 0 0 0 0 0 0 0 0 0 0
0 0 0 1 1 0 0 0 0 1 1 1 0 0 0 0 0 0 0 0 0 0 0 0 1 1 1 0 0 1 1 0 0 0 0 0 0 0 0 0 0 0 0
0 0 0 1 1 0 0 0 0 1 1 1 0 0 0 0 0 0 0 0 0 0 0 0 0 1 1 0 0 1 1 0 0 0 0 0 0 0 1 1 0 0 0
1 0 0 0 1 0 0 0 0 0 0 0 0 0 0 0 0 0 0 0 0 0 0 0 0 1 1 1 1 1 1 0 0 0 0 0 0 0 1 0 0 0 0
1 1 0 0 0 0 0 0 0 0 0 0 0 0 0 0 0 0 0 0 0 0 0 0 0 1 1 1 1 1 1 0 0 0 0 0 0 0 1 0 0 0 0
1 1 0 0 0 0 0 0 0 0 0 0 0 0 0 0 0 0 0 0 0 0 0 0 0 1 1 1 1 1 1 0 0 0 0 0 0 0 0 0 0 0 0
1 1 1 0 0 0 0 0 0 0 0 0 0 0 0 0 0 0 0 0 0 0 0 0 0 0 0 0 0 0 0 0 0 0 0 0 0 1 1 1 1 0 0
1 1 1 1 1 0 0 0 0 0 0 0 0 0 0 0 0 0 0 0 0 0 0 0 0 0 0 0 0 0 0 0 0 0 0 0 1 1 1 1 1 1 1
1 1 1 1 1 0 0 0 0 0 0 0 0 0 0 0 0 0 0 0 0 0 0 0 0 0 0 0 0 0 0 0 0 0 0 1 1 1 1 1 1 1 1
2 2 1 1 1 1 1 0 0 0 0 0 0 0 0 0 0 0 0 0 0 0 0 0 0 0 0 0 0 0 0 0 0 0 0 1 1 1 1 1 1 1 1
2 2 2 1 1 1 1 1 1 0 0 0 0 0 0 0 0 0 0 0 0 0 0 0 0 0 0 0 0 0 0 0 0 0 0 1 1 1 1 1 1 1 1
2 2 2 1 1 1 1 1 1 1 0 0 0 0 0 0 0 0 0 0 0 0 0 0 0 0 0 0 0 0 0 0 0 0 0 1 1 1 1 1 1 0 1
2 3 2 2 1 1 1 1 1 1 0 0 0 0 0 0 0 0 0 0 0 0 0 0 0 0 0 0 0 0 0 0 0 0 0 0 0 0 1 1 1 1 1
3 3 2 2 2 1 1 1 1 1 1 1 1 1 0 0 0 0 0 0 0 0 0 0 0 0 0 0 0 0 0 0 0 0 0 0 0 0 0 1 1 1 1
3 3 2 2 2 2 1 1 1 1 1 1 1 1 1 1 1 1 1 1 0 0 0 0 0 0 0 0 0 0 0 0 0 0 0 0 0 0 0 0 0 0 0
3 3 2 2 2 2 2 2 2 2 1 1 1 1 1 1 1 1 2 1 1 1 0 0 0 0 0 0 0 0 0 0 0 0 0 0 0 0 0 0 0 0 0
4 3 3 2 2 2 2 2 2 2 1 1 2 2 1 1 2 2 3 2 1 1 0 0 0 0 0 0 0 0 0 0 0 0 0 0 0 0 0 0 0 0 0
5 4 3 3 3 3 2 2 2 1 1 1 2 2 2 2 2 2 2 2 1 1 0 0 0 0 0 0 0 0 0 0 0 0 0 0 0 0 0 0 0 0 0
4 4 3 3 3 3 3 2 2 1 2 2 2 2 3 2 2 2 2 1 1 1 0 0 0 0 1 1 1 0 0 0 0 0 0 0 0 0 0 1 1 1 1
4 4 4 4 4 3 3 3 2 2 2 2 2 3 3 3 2 2 1 1 1 1 1 1 1 1 1 1 1 0 0 0 0 0 0 0 0 0 0 0 1 1 1
6 5 5 4 4 4 4 4 3 3 2 2 2 3 3 3 3 2 1 1 1 1 1 1 1 1 1 1 1 0 0 0 0 0 0 0 0 0 0 0 0 1 1
7 6 6 5 4 4 4 4 4 3 3 2 2 3 3 3 3 2 2 1 1 1 1 1 1 1 1 1 1 0 0 0 0 0 0 0 0 0 0 0 0 0 0
Wind_Speed
2 4 10 13 14 15 16 16 16 16 17 17 18 18 18 18 17 17 17 17 16 17 17 18 17 17 17 17 16 16 16 15 15 15 15 14 14 14 15 15 14 11 15
6 6 11 13 14 15 15 15 15 16 16 17 17 17 17 17 17 17 17 17 17 17 17 17 17 16 16 15 15 15 15 14 14 14 14 13 13 13 14 14 14 10 15
8 6 10 13 14 15 15 15 15 15 16 16 17 16 16 16 16 16 16 16 16 16 16 16 16 15 15 14 14 13 14 14 14 14 12 7 8 13 13 14 15 14 15
9 6 9 14 14 15 15 14 14 15 15 16 16 16 16 15 15 15 16 15 15 15 15 15 15 14 13 13 12 12 12 13 13 12 6 5 6 12 13 14 14 14 14
8 6 9 14 14 15 15 14 14 14 14 15 15 15 15 15 15 15 16 15 14 14 14 14 13 12 12 11 10 10 10 10 12 10 6 5 5 11 13 14 14 13 13
8 6 9 14 14 14 14 14 14 14 14 14 15 15 15 15 15 15 15 15 14 13 13 12 12 11 10 10 9 9 9 11 11 7 6 5 5 10 13 13 13 13 12
8 6 8 14 14 14 14 13 13 13 13 14 14 14 14 14 14 14 14 13 12 12 11 11 10 10 9 9 8 9 10 12 8 6 5 5 6 11 12 13 12 12 12
10 7 7 13 13 13 13 13 12 13 13 13 13 13 13 14 14 13 13 12 11 11 10 9 9 9 8 8 9 9 10 12 10 8 6 5 8 11 12 11 11 11 11
10 7 5 6 8 11 12 12 12 12 12 12 12 13 13 13 13 12 11 11 10 10 9 9 8 8 7 7 8 8 9 12 7 5 7 4 9 11 11 11 11 11 11
8 7 6 5 4 4 6 10 12 12 12 11 12 12 12 12 11 11 9 9 9 9 8 8 7 7 6 6 7 8 10 11 6 5 4 5 10 11 11 11 11 11 11
9 6 6 6 5 4 4 8 8 10 10 10 8 10 8 4 4 5 7 8 8 8 7 6 5 5 4 4 6 7 7 4 5 4 3 8 10 11 11 11 11 11 11
10 8 7 7 6 5 5 4 3 4 4 3 3 4 3 2 2 4 5 7 7 6 5 3 3 2 3 2 3 5 3 5 4 3 4 11 10 11 11 11 10 11 10
12 10 8 8 7 5 4 4 2 2 2 2 3 3 3 2 2 2 1 2 2 3 2 1 1 1 1 0 1 2 3 4 3 3 5 11 10 11 11 11 10 10 10
11 10 9 8 7 6 5 4 3 3 2 2 3 4 3 2 2 2 1 1 1 0 1 0 0 1 1 0 2 3 4 4 3 2 5 11 10 11 11 11 11 10 11
11 10 10 9 8 6 5 4 4 3 3 3 3 3 4 3 3 2 1 1 1 1 1 1 0 1 1 1 2 4 4 4 4 4 4 11 11 10 11 11 11 11 11
11 10 9 9 8 7 5 4 4 4 3 3 3 4 4 4 3 3 2 2 1 1 1 1 1 1 1 1 2 3 4 4 4 4 3 6 11 11 11 11 11 12 11
11 10 10 9 8 7 6 5 5 4 4 3 3 4 4 4 4 3 3 2 1 1 2 1 1 2 1 1 2 2 3 3 4 5 4 3 4 9 11 11 12 12 12
11 11 10 10 8 7 5 5 4 4 4 3 3 3 4 5 4 3 2 2 1 1 1 1 1 2 1 1 1 1 2 2 4 4 4 3 3 4 7 11 11 11 12
12 11 9 8 8 7 5 4 4 3 3 3 3 3 3 4 4 3 2 2 1 1 1 1 1 1 1 0 0 0 1 2 3 4 4 5 4 4 3 8 11 11 12
11 11 10 8 8 6 4 3 2 2 3 3 3 3 4 3 4 3 2 2 2 2 1 1 1 1 1 1 0 1 0 1 2 3 5 4 5 6 5 5 5 7 11
10 11 10 9 8 6 4 3 3 3 2 3 3 4 5 4 4 4 2 2 2 2 2 2 2 1 0 1 2 2 2 1 1 2 3 3 5 5 5 5 4 3 4
12 11 10 10 9 8 5 4 3 3 2 3 3 4 5 5 5 4 4 3 3 2 2 2 2 1 0 1 2 1 2 4 3 1 1 3 4 4 5 7 5 6 5
12 12 11 10 9 8 6 3 2 2 1 1 2 3 4 5 5 4 5 4 4 3 3 3 3 3 2 1 2 3 2 2 2 3 2 2 2 3 4 4 6 6 7
14 12 11 10 9 8 8 6 5 4 4 4 3 3 3 4 5 5 5 5 4 3 3 4 3 3 3 1 1 1 2 3 2 2 3 2 2 3 4 5 6 6 7
13 11 10 10 9 8 8 8 6 4 4 2 2 4 4 4 4 5 5 4 4 4 4 4 3 3 3 3 2 1 1 1 2 2 2 2 2 2 3 4 4 4 5
10 10 10 10 9 9 8 8 7 6 5 4 4 4 4 3 3 4 5 5 4 4 4 4 4 4 3 3 3 2 2 2 2 2 2 2 2 3 2 2 3 3 4
Wind_Direction
82 90 93 92 91 89 88 87 86 87 87 87 87 88 89 94 99 102 106 108 110 113 113 113 112 112 113 114 115 115 114 112 110 111 112 113 115 115 113 111 109 108 113
126 108 100 98 95 93 92 90 89 89 90 89 89 90 91 94 98 100 102 104 104 107 109 111 111 112 112 113 115 116 116 114 111 109 109 111 115 115 113 112 110 113 113
115 108 104 102 99 96 95 93 93 92 92 93 93 94 94 95 98 102 104 104 104 106 109 112 113 112 112 113 115 116 117 115 111 109 107 101 110 113 113 113 114 114 114
118 111 109 106 103 100 98 96 95 95 95 96 96 96 96 97 98 101 104 104 106 107 110 112 114 113 114 114 114 115 118 117 113 109 99 99 107 115 116 115 115 116 116
111 109 114 110 108 105 103 101 99 98 100 100 100 99 99 99 101 101 102 104 106 108 111 112 114 113 114 113 111 110 112 115 112 103 94 93 101 118 118 118 117 118 119
115 114 119 115 111 110 108 106 103 102 102 103 101 102 101 100 101 101 102 103 104 106 110 113 114 113 113 112 108 105 109 115 110 103 99 100 105 121 120 120 120 121 121
124 120 122 119 117 116 113 110 108 105 104 106 105 105 104 104 104 103 104 104 104 105 109 112 113 112 111 112 110 105 109 117 116 110 103 101 112 121 120 120 121 123 123
131 126 126 126 124 121 120 117 114 110 110 110 110 109 107 107 106 105 105 106 105 106 109 111 116 115 109 108 110 107 114 119 122 117 110 110 120 120 121 122 123 125 126
131 128 123 126 125 125 124 122 119 116 114 114 114 112 111 110 109 108 107 107 107 108 111 111 113 116 109 106 109 111 117 122 122 124 126 122 127 128 126 126 128 128 129
134 135 133 127 122 123 125 129 127 125 124 122 121 119 117 115 113 111 110 110 108 107 109 109 108 108 102 102 107 111 118 123 127 121 121 136 136 135 134 133 133 132 134
142 145 145 142 141 140 143 141 135 132 132 131 126 124 116 100 104 112 118 117 114 113 108 102 105 103 95 98 111 110 110 117 123 122 132 144 143 142 140 139 140 140 138
157 161 160 157 159 158 153 136 137 133 126 121 121 122 115 119 130 128 130 128 124 118 107 92 76 78 74 80 108 103 103 125 124 134 150 153 153 150 147 148 146 144 143
164 164 166 165 165 163 146 150 152 139 139 143 142 142 133 121 121 110 105 115 108 109 80 58 21 15 28 82 107 113 125 128 135 148 157 159 160 158 156 156 153 151 151
162 166 165 165 164 164 155 160 158 155 156 161 167 159 144 134 136 136 131 137 124 105 104 66 340 318 307 183 134 130 134 136 139 140 162 164 166 166 165 164 161 158 156
164 168 169 166 165 162 161 169 163 168 169 168 165 169 158 152 156 157 163 167 179 168 169 177 183 203 139 123 122 127 133 140 147 155 163 173 173 174 172 170 168 167 165
165 168 169 164 163 157 160 166 161 168 166 159 161 165 159 154 153 153 154 160 171 161 158 145 150 140 117 109 112 131 142 148 154 157 158 179 183 182 181 179 177 173 173
165 164 164 164 160 156 157 161 158 163 160 159 160 158 151 148 147 143 138 151 173 162 143 122 97 78 88 93 99 122 131 145 153 157 162 167 183 188 187 187 184 184 182
161 162 167 165 158 156 153 147 151 156 155 159 160 154 150 149 147 136 136 153 173 147 134 125 93 83 71 82 81 114 128 147 162 167 168 174 182 192 196 195 194 194 193
165 164 165 159 160 160 155 146 146 149 154 160 156 151 157 153 146 139 146 155 144 128 151 162 110 124 131 117 148 159 151 163 170 172 177 190 192 196 197 204 202 201 203
167 165 164 161 164 159 149 134 124 135 159 162 163 165 163 163 156 146 153 160 140 130 137 127 131 120 148 173 26 20 307 208 180 183 190 194 196 201 200 208 205 210 212
167 167 168 166 168 160 154 156 155 169 176 178 183 178 170 173 167 156 165 166 154 158 179 164 142 112 84 105 65 6 340 331 231 204 195 192 199 201 195 203 202 205 215
173 174 172 172 172 170 171 167 164 165 181 185 185 184 181 183 182 178 177 180 176 163 179 174 150 137 188 143 130 87 358 343 329 260 201 197 200 191 194 202 204 206 210
175 178 181 180 175 173 166 150 138 116 111 160 184 191 198 194 193 186 186 185 185 176 190 198 180 163 185 234 160 148 153 236 299 318 274 221 202 189 197 199 206 212 209
182 181 179 180 176 172 165 166 173 178 190 203 193 192 202 205 199 189 190 191 192 190 195 207 192 177 168 200 243 197 180 173 172 297 313 291 229 206 208 209 210 213 212
180 178 177 176 177 175 174 176 183 189 195 192 184 188 202 212 209 195 193 193 197 199 203 210 195 191 180 185 200 204 193 189 171 170 266 298 304 255 224 219 215 216 216
175 176 176 177 182 181 179 182 189 188 184 179 191 198 205 208 214 210 203 202 203 205 208 210 206 199 199 195 196 194 185 189 203 185 217 249 264 272 255 234 222 221 219